User: anonymous   Login
Location: Caltech
(34.1382°N, 118.1253°W)
Time: 04:54:25
(UTC-07:00)
Language:

Cosmos 2084 - Orbit

View from above orbital plane
View from above orbital plane
View from above satellite
View from above satellite

Ground track
Ground track

The orbit data is extracted from the following two-line orbital elements,

1 20663U 90055A   14298.11509971  .00003958  00000-0  42464-3 0  2635
2 20663 062.7972 208.3889 0045426 328.0933 031.7409 14.89463880315777
Epoch (UTC): 25 October 2014 02:45:44
Eccentricity: 0.0045426
inclination: 62.7972°
perigee height: 568 km
apogee height: 631 km
right ascension of ascending node: 208.3889°
argument of perigee: 328.0933°
revolutions per day: 14.89463880
mean anomaly at epoch: 31.7409°
orbit number at epoch: 31577

The dashed part of the orbit path shows where the satellite is in the earth's shadow,  

DLR